Flag for Germany Weather past 2 weeks in Buchholz in der Nordheide, Lower Saxony, Germany

Now
66 °F

Scattered clouds.


Feels Like: 66 °F
Forecast: 56 / 65 °F
Wind: 3 mph from North

Location: Hamburg-Finkenwerder

Current Time: Aug 29, 2014 at 8:22:32 PM

Latest Report: Aug 29, 2014 at 7:50 PM


Visibility: N/A

Pressure: 29.92 "Hg

Humidity: 64%

Dew point: 54 °F

Location of Buchholz in der NordheideLocation

Historic Weather in Buchholz in der Nordheide — Graph

°F

Buchholz in der Nordheide temperature yesterday

Maximum temperature yesterday: 75 °F (at 4:20 PM)
Minimum temperature yesterday: 46 °F (at 5:50 AM)
Average temperature yesterday: 66 °F

Past Weeks' High & Low Weather Summary

 TemperatureHumidityPressure
High75 °F (Aug 28, 4:20 PM)100% (Aug 15, 6:20 AM)30.04 "Hg (Aug 15, 6:20 AM)
Low43 °F (Aug 26, 5:50 AM)31% (Aug 28, 3:20 PM)29.47 "Hg (Aug 18, 10:20 AM)
Average60 °F72%29.84 "Hg
* Reported Aug 14 7:20 PM — Aug 29 7:20 PM, Buchholz in der Nordheide, Weather by CustomWeather, © 2014

Note: Actual official high and low records may vary slightly from our data, if they occured in-between our weather recording intervals... More about our weather records

Advertising

Buchholz in der Nordheide weather history for previous 24 hours

 ConditionsComfort  
Time TempWeatherWind HumidityBarometerVisibility
7:20 PM
Aug 29
68 °FScattered clouds.7 mph64%29.92 "HgN/A
6:50 PM68 °FPassing clouds.7 mph64%29.92 "HgN/A
6:20 PM70 °FPassing clouds.10 mph60%29.92 "HgN/A
5:50 PM70 °FSunny.12 mph60%29.92 "Hg10 mi
5:20 PM70 °FScattered clouds.14 mph60%29.92 "HgN/A
4:50 PM72 °FScattered clouds.14 mph57%29.92 "HgN/A
4:20 PM72 °FScattered clouds.14 mph53%29.92 "HgN/A
3:50 PM72 °FScattered clouds.12 mph57%29.92 "HgN/A
3:20 PM70 °FScattered clouds.17 mph53%29.92 "HgN/A
2:50 PM72 °FScattered clouds.15 mph50%29.92 "HgN/A
2:20 PM68 °FScattered clouds.17 mph60%29.92 "HgN/A
1:50 PM70 °FScattered clouds.16 mph64%29.92 "HgN/A
1:20 PM68 °FScattered clouds.13 mph69%29.92 "HgN/A
12:50 PM68 °FPartly sunny.14 mph73%29.92 "HgN/A
12:20 PM66 °FScattered clouds.12 mph83%29.92 "HgN/A
11:50 AM64 °FBroken clouds.12 mph88%29.92 "Hg6 mi
11:20 AM64 °FScattered showers. Partly sunny.10 mph88%29.89 "Hg5 mi
10:50 AM64 °FScattered showers. Partly sunny.9 mph88%29.89 "Hg5 mi
10:20 AM63 °FSprinkles. Partly sunny.8 mph100%29.89 "Hg5 mi
9:50 AM63 °FRain showers. Partly sunny.7 mph94%29.89 "Hg4 mi
9:20 AM63 °FSprinkles. Low clouds.7 mph94%29.89 "Hg4 mi
8:50 AM63 °FSprinkles. Broken clouds.9 mph88%29.89 "Hg6 mi
8:20 AM63 °FScattered showers. Partly sunny.6 mph88%29.89 "HgN/A
7:50 AM61 °FSprinkles. Broken clouds.2 mph94%29.89 "HgN/A
7:20 AM61 °FSprinkles. Partly cloudy.2 mph88%29.89 "HgN/A
6:50 AM61 °FScattered showers. Clear.3 mph88%29.89 "Hg10 mi
6:20 AM61 °FPassing clouds.3 mph88%29.89 "HgN/A
5:50 AM63 °FPassing clouds.3 mph88%29.89 "HgN/A
Weather by CustomWeather, © 2014

See weather overviewHow to use our weather pages